Weather History for KHYA - February, 2013

Change the Weather History Date:

Saturday, February 23, 2013

  Actual Average Record
Temperature  
Mean Temperature 36 °F -  
Max Temperature 39 °F 43 °F 57 °F (2012)
Min Temperature 32 °F 27 °F 2 °F (1959)
Degree Days  
Heating Degree Days 30    
Moisture  
Dew Point 32 °F    
Average Humidity 84    
Maximum Humidity 100    
Minimum Humidity 68    
Precipitation  
Precipitation 0.31 in - - ()
Sea Level Pressure  
Sea Level Pressure 30.13 in    
Wind  
Wind Speed 3 mph (ESE)    
Max Wind Speed 13 mph    
Max Gust Speed 20 mph    
Visibility 9 miles    
Events Rain    
Averages and records for this station are not official NWS values.
T = Trace of Precipitation, MM = Missing Value Source: NWS Daily Summary

Daily Weather History Graph

Daily Weather History Graph

Search for Another Location

Airport or City:

Trip Planner

Search our weather history database for the weather conditions in past years. The results will help you decide how hot, cold, wet, or windy it might be!

Date:

Astronomy

Feb. 23, 2013 Rise Set
Actual Time 6:24 AM EST 5:24 PM EST
Civil Twilight 5:56 AM EST 5:52 PM EST
Nautical Twilight 5:24 AM EST 6:25 PM EST
Astronomical Twilight 4:52 AM EST 6:57 PM EST
Moon 3:31 PM EST (2/23) 4:46 AM EST (2/23)
Length of Visible Light 11h 56m
Length of Day
10h 59m
Waxing Gibbous, 95% of the Moon is Illuminated
Feb 23
Waxing Gibbous
Feb 25
Full
Mar 4
Last Quarter
Mar 11
New
Mar 19
First Quarter

Hourly Weather History & Observations

Time (EST) Temp. Windchill Dew Point Humidity Pressure Visibility Wind Dir Wind Speed Gust Speed Precip Events Conditions
12:56 AM 33.1 °F - 28.0 °F 82% 30.32 in 10.0 mi Calm Calm - N/A   Overcast
1:34 AM 33.8 °F - 28.4 °F 81% 30.30 in 10.0 mi Calm Calm - N/A   Overcast
1:56 AM 34.0 °F - 28.0 °F 79% 30.30 in 10.0 mi Calm Calm - N/A   Overcast
2:56 AM 33.1 °F - 28.0 °F 82% 30.30 in 10.0 mi Calm Calm - N/A   Overcast
3:56 AM 33.1 °F - 28.9 °F 85% 30.28 in 10.0 mi Calm Calm - N/A   Overcast
4:32 AM 33.8 °F - 28.4 °F 81% 30.26 in 10.0 mi Calm Calm - N/A   Overcast
4:39 AM 33.8 °F - 28.4 °F 81% 30.27 in 10.0 mi Calm Calm - N/A   Overcast
4:56 AM 33.1 °F - 28.9 °F 85% 30.28 in 10.0 mi Calm Calm - N/A   Overcast
5:56 AM 32.0 °F - 28.9 °F 88% 30.26 in 10.0 mi Calm Calm - N/A   Mostly Cloudy
6:56 AM 32.0 °F - 30.0 °F 92% 30.24 in 10.0 mi Calm Calm - N/A   Mostly Cloudy
7:56 AM 35.1 °F - 30.9 °F 85% 30.25 in 10.0 mi Calm Calm - N/A   Overcast
8:56 AM 37.9 °F 32.7 °F 30.0 °F 73% 30.24 in 10.0 mi ESE 6.9 mph - N/A   Overcast
9:56 AM 39.0 °F 34.0 °F 30.9 °F 73% 30.22 in 10.0 mi SE 6.9 mph - N/A   Overcast
10:56 AM 39.0 °F 33.4 °F 30.0 °F 70% 30.20 in 10.0 mi SE 8.1 mph - N/A   Overcast
11:56 AM 39.9 °F 35.8 °F 30.9 °F 70% 30.17 in 10.0 mi SE 5.8 mph - N/A   Overcast
12:13 PM 39.2 °F 32.5 °F 30.2 °F 70% 30.16 in 10.0 mi SE 10.4 mph 17.3 mph N/A   Overcast
12:56 PM 39.9 °F 33.9 °F 30.0 °F 68% 30.15 in 10.0 mi SE 9.2 mph - N/A   Overcast
1:56 PM 39.0 °F 34.0 °F 30.0 °F 70% 30.13 in 10.0 mi SE 6.9 mph - N/A   Overcast
2:56 PM 39.0 °F 34.0 °F 30.9 °F 73% 30.13 in 10.0 mi SE 6.9 mph - N/A   Overcast
3:56 PM 37.9 °F 32.1 °F 30.9 °F 76% 30.10 in 10.0 mi ESE 8.1 mph - N/A   Overcast
4:56 PM 37.9 °F 32.7 °F 30.9 °F 76% 30.06 in 10.0 mi ESE 6.9 mph - N/A   Overcast
5:03 PM 37.4 °F 32.1 °F 30.2 °F 75% 30.05 in 10.0 mi ESE 6.9 mph - N/A   Overcast
5:56 PM 37.9 °F 32.7 °F 32.0 °F 79% 30.05 in 10.0 mi ESE 6.9 mph - 0.00 in Rain Light Rain
6:48 PM 37.4 °F 32.8 °F 33.8 °F 87% 30.03 in 10.0 mi Variable 5.8 mph - 0.01 in Rain Light Rain
6:56 PM 37.0 °F 31.6 °F 35.1 °F 93% 30.03 in 9.0 mi ESE 6.9 mph - 0.02 in Rain Light Rain
7:04 PM 37.4 °F 32.1 °F 35.6 °F 93% 30.02 in 8.0 mi ESE 6.9 mph - 0.01 in Rain Light Rain
7:26 PM 37.4 °F 32.1 °F 35.6 °F 93% 30.01 in 6.0 mi ESE 6.9 mph - 0.04 in Rain Rain
7:46 PM 37.4 °F 32.8 °F 35.6 °F 93% 30.00 in 6.0 mi ESE 5.8 mph - 0.08 in Rain Light Rain
7:56 PM 37.9 °F 32.7 °F 36.0 °F 93% 30.01 in 6.0 mi Variable 6.9 mph - 0.08 in Rain Light Rain
8:25 PM 37.4 °F 31.4 °F 37.4 °F 100% 29.98 in 7.0 mi ESE 8.1 mph - 0.03 in Rain Light Rain
8:36 PM 37.4 °F 32.1 °F 37.4 °F 100% 29.97 in 7.0 mi ESE 6.9 mph - 0.03 in Rain Light Rain
8:56 PM 37.9 °F 30.9 °F 37.0 °F 97% 29.97 in 6.0 mi ESE 10.4 mph - 0.06 in Rain Light Rain
9:37 PM 39.2 °F 33.0 °F 37.4 °F 93% 29.94 in 7.0 mi ESE 9.2 mph 17.3 mph 0.03 in Rain Light Rain
9:56 PM 39.0 °F 32.3 °F 37.9 °F 96% 29.93 in 9.0 mi East 10.4 mph 18.4 mph 0.03 in Rain Light Rain
11:56 PM 39.9 °F 32.5 °F 39.0 °F 97% 29.84 in 5.0 mi East 12.7 mph 19.6 mph 0.12 in Rain Rain